Flag for Afghanistan Weather past 2 weeks in Herat, Afghanistan

Now
77 °F

Sunny.


Feels Like: 76 °F
Forecast: 60 / 87 °F
Wind: 13 mph from North

Location: Herat Airport

Current Time: Aug 30, 2015 at 6:52:12 PM

Latest Report: Aug 30, 2015 at 6:25 PM


Visibility: 10 mi

Pressure: 30.01 "Hg (26.95 "Hg at 937m altitude)

Humidity: 11%

Dew point: 18 °F

Location of HeratLocation

Historic Weather in Herat — Graph

°F

Herat temperature yesterday

Maximum temperature yesterday: 84 °F (at 2:25 PM)
Minimum temperature yesterday: 64 °F (at 6:25 AM)
Average temperature yesterday: 77 °F

Past Weeks' High & Low Weather Summary

 TemperatureHumidityPressure
High104 °F (Aug 18, 3:25 PM)37% (Aug 22, 7:25 AM)30.12 "Hg (Aug 22, 7:25 AM)
Low64 °F (Aug 29, 6:25 AM)5% (Aug 16, 2:25 PM)29.74 "Hg (Aug 18, 3:25 PM)
Average85 °F15%29.90 "Hg
* Reported Aug 15 5:25 PM — Aug 30 5:24 PM, Herat, Weather by CustomWeather, © 2015

Note: Actual official high and low records may vary slightly from our data, if they occured in-between our weather recording intervals... More about our weather records

Advertising

Herat weather history for previous 24 hours

 ConditionsComfort  
Time TempWeatherWind HumidityBarometerVisibility
5:24 PM
Sun, Aug 30
81 °FPassing clouds.15 mph9%29.98 "HgN/A
4:24 PM82 °FPassing clouds.21 mph8%29.98 "HgN/A
3:25 PM84 °FPassing clouds.18 mph8%30.01 "HgN/A
2:24 PM84 °FPassing clouds.15 mph9%30.01 "HgN/A
1:25 PM84 °FPassing clouds.17 mph9%30.04 "HgN/A
12:25 PM82 °FSunny.17 mph10%30.04 "Hg10 mi
11:25 AM81 °FPassing clouds.15 mph9%30.07 "HgN/A
10:24 AM79 °FPassing clouds.16 mph11%30.09 "HgN/A
9:25 AM77 °FPassing clouds.12 mph11%30.09 "HgN/A
8:24 AM73 °FSunny.8 mph14%30.09 "Hg10 mi
7:25 AM66 °FSunny.6 mph21%30.09 "Hg10 mi
6:24 AM64 °FSunny.6 mph19%30.09 "Hg10 mi
5:50 AM64 °FPassing clouds.10 mph18%30.09 "HgN/A
10:24 PM
Sat, Aug 29
70 °FPassing clouds.14 mph16%30.12 "HgN/A
9:24 PM72 °FPassing clouds.15 mph16%30.12 "HgN/A
8:25 PM73 °FClear.17 mph15%30.09 "Hg10 mi
7:25 PM75 °FClear.16 mph14%30.09 "Hg10 mi
6:25 PM77 °FPassing clouds.17 mph13%30.07 "HgN/A
Weather by CustomWeather, © 2015

See weather overviewHow to use our weather pages